Погода в Норсупе

Вануату     16°04′36″S   167°23′53″E
темп.,
°C
ветер,
м/с
пор.,
м/с
влажн.,
%
обл.,
%
осадки,
мм/ч
давл.,
гПа
погр.,
м
1 марта, пн
пн123:00+28юв6775100 0.0 1007777
02:00+28юв5572100 0.0 1005814
05:00+27ююв457394 0.0 1005754
08:00+27ююв4570100 0.0 1007777
11:00+28вюв557197 0.0 1006857
14:00+28всв4467100 0.0 1004757
17:00+28в3366100 0.0 1004868
20:00+28вюв3369100 0.0 1007937
2 марта, вт
вт223:00+28юв337074 0.0 1007916
02:00+27юв226886 0.1 1006654
05:00+27ююв337190 0.1 1005494
08:00+28вюв336842 0.0 1008725
11:00+28вюв446749 0.0 1006813
14:00+28в566829 0.0 1005886
17:00+28в556915 0.0 1004840
20:00+28в567673 0.0 1007803
3 марта, ср
ср323:00+28ссз457887 5.1 1007460
02:00+28с111379100 12.8 1005783
05:00+29с7878100 22.9 1004560
08:00+29в4475100 7.4 1006556
11:00+29с4476100 7.4 1006745
14:00+29ссв9117980 1.1 1004698
17:00+29зсз897988 5.4 1004859
20:00+28сз8980100 8.0 1006865
4 марта, чт
чт423:00+28ссз8978100 13.4 1007733
02:00+28ссз81077100 4.1 1005844
05:00+29ссз91076100 7.7 1005962
08:00+29с101176100 3.1 10071029
11:00+28с121481100 7.4 10071082
14:00+28ссз13168399 4.6 10041182
17:00+29с12157799 6.8 10031321
20:00+29с121579100 2.3 10051184
5 марта, пт
пт523:00+28ссз141781100 6.3 10051347
02:00+28ссз141783100 12.6 10031311
05:00+28ссз151884100 17.6 10021236
08:00+28с162085100 5.9 10041377
11:00+28ссз141684100 23.3 10031086
14:00+28ссз141683100 2.8 10011071
17:00+27ссз131586100 6.2 10011107
20:00+28ссз141783100 2.1 10021254